Temperature
26 25 24 23 22 21 21 20 20 20 19 19 19 19 19 19 19 19 19 19 18 18 18 18 18 18 18 18 18 18 18 18 18 18 19 19 19 19 19 19 18 18 18
26 24 24 23 22 21 21 20 20 20 19 19 19 19 19 19 19 19 19 19 19 18 18 18 18 18 18 18 18 18 18 18 18 18 18 18 19 19 19 18 18 18 18
26 24 24 23 22 21 21 20 20 20 20 19 19 19 19 19 19 19 19 18 18 18 18 18 18 18 18 18 18 18 18 18 18 18 18 18 18 18 18 18 18 18 18
26 25 24 23 22 21 21 20 20 20 20 19 19 19 19 19 19 18 18 18 18 18 18 18 18 18 18 18 18 18 18 18 18 18 18 18 18 18 18 18 18 18 18
26 25 24 23 22 21 21 20 20 20 20 19 19 19 19 19 18 18 18 18 18 18 18 18 18 18 18 18 18 17 18 17 17 18 18 18 18 18 18 17 17 17 17
27 25 24 23 22 22 21 20 20 19 19 19 19 19 19 19 18 18 18 18 18 18 18 18 18 18 18 18 18 17 17 17 17 17 17 17 17 18 18 17 17 17 17
27 25 24 23 22 22 21 20 20 19 19 19 19 19 19 18 18 18 18 18 18 18 18 18 18 18 18 17 17 17 17 17 17 17 17 17 17 17 17 17 17 17 17
26 25 24 23 22 22 21 20 20 19 19 19 19 19 19 18 18 18 18 17 17 17 17 17 17 17 17 17 17 17 17 17 17 17 17 17 17 17 17 17 17 16 16
27 26 25 24 23 22 21 21 20 19 19 19 19 19 18 18 18 18 17 17 17 17 17 17 17 17 17 17 17 17 16 16 16 16 16 16 16 16 17 16 16 16 16
27 25 24 24 23 22 21 21 20 20 19 19 19 18 18 18 18 17 17 17 17 17 17 17 17 17 16 16 16 16 16 16 16 16 16 16 16 16 16 16 16 16 16
26 25 24 23 23 22 21 21 20 20 19 19 19 18 18 18 17 17 17 17 17 17 17 17 16 16 16 16 16 16 16 16 16 16 16 16 16 16 16 16 16 16 16
26 25 24 23 22 22 21 20 20 20 19 19 18 18 18 17 17 17 17 17 17 17 16 16 16 16 16 16 16 15 15 15 15 15 15 15 15 15 15 15 15 15 15
25 24 24 23 22 21 21 20 20 20 19 19 18 18 18 17 17 17 16 16 16 16 16 16 16 16 16 15 15 15 15 15 15 15 15 15 15 15 15 15 15 15 15
25 24 23 22 22 21 20 20 20 19 19 18 18 18 17 17 17 17 16 16 16 16 16 16 15 15 15 15 15 15 15 14 14 14 14 14 14 14 14 14 14 14 14
25 24 23 22 21 21 20 20 20 19 19 18 18 17 17 17 17 16 16 16 16 16 16 15 15 15 15 15 15 15 15 14 14 14 14 14 14 14 14 14 14 14 14
25 23 23 22 21 21 20 19 19 19 18 18 18 17 17 17 16 16 16 16 16 15 15 15 15 15 15 15 15 15 14 14 14 14 14 14 14 14 14 13 13 13 13
24 23 22 22 21 20 20 19 19 19 18 18 17 17 17 16 16 16 16 16 15 15 15 15 15 15 15 15 14 14 14 14 14 14 14 13 13 13 13 13 13 13 13
24 23 22 22 21 20 20 19 19 19 18 18 17 17 16 16 16 16 15 15 15 15 15 15 14 14 14 14 14 14 14 14 14 13 13 13 13 13 13 13 13 13 12
24 23 22 21 21 20 19 19 19 18 18 17 17 17 16 16 16 16 16 15 15 15 15 14 14 14 14 14 14 14 14 13 13 13 13 13 13 12 12 12 12 12 12
23 22 22 21 20 20 19 19 18 18 18 17 17 17 16 16 16 16 15 15 15 15 14 14 14 14 14 14 14 13 13 13 13 13 12 12 12 12 12 12 12 12 11
22 22 21 20 20 19 19 19 18 18 17 17 17 17 16 16 16 15 15 15 15 15 14 14 14 14 14 14 13 13 13 12 12 12 12 12 12 12 12 11 11 11 11
22 21 20 20 19 19 19 18 18 17 17 17 17 16 16 15 15 15 15 15 15 15 14 14 14 14 13 13 13 13 13 12 12 12 12 11 11 11 11 11 11 11 11
21 20 20 19 19 18 18 18 17 17 17 17 16 16 15 15 15 15 15 15 15 14 14 14 14 14 13 13 13 13 12 12 12 11 11 11 11 11 11 11 11 11 11
20 20 19 19 18 18 18 17 17 17 17 16 16 16 15 15 15 15 15 15 14 14 14 14 14 13 13 13 13 12 12 12 12 11 11 11 11 11 11 11 11 11 11
20 19 19 18 18 17 17 17 17 17 16 16 16 16 15 15 15 15 15 15 15 15 14 14 13 13 13 13 12 12 12 12 12 11 11 11 11 11 11 11 10 10 10
19 18 18 17 17 17 17 17 16 16 16 16 15 15 15 15 15 15 15 15 14 14 14 14 13 13 13 13 12 12 12 12 11 11 11 11 11 10 10 10 10 10 10
Wind_Speed
9 9 9 9 8 8 7 6 5 4 3 3 2 2 2 2 3 3 3 3 2 2 1 2 1 1 1 1 2 2 2 1 1 1 1 1 2 2 2 2 1 1 2
12 11 10 9 8 8 7 7 6 4 3 3 2 2 2 2 3 3 3 3 3 2 2 3 2 1 1 1 2 2 2 2 1 1 1 1 1 1 0 1 1 1 1
13 12 10 9 8 8 7 6 5 4 3 3 3 2 3 2 3 3 2 2 2 3 3 2 2 2 1 1 1 1 2 2 2 1 1 1 1 1 1 1 0 0 1
12 12 11 10 9 9 8 7 6 5 4 3 3 3 3 2 2 2 2 2 2 2 2 2 2 2 2 2 3 2 2 2 3 2 2 1 1 1 1 1 1 1 1
12 12 11 10 10 10 9 8 7 5 4 3 2 2 2 2 2 2 3 2 1 2 2 2 2 2 2 3 3 3 3 2 3 3 3 2 2 0 1 1 1 1 1
12 12 12 10 9 9 9 8 7 6 5 4 3 2 2 1 2 2 2 1 1 2 2 2 3 3 2 3 3 3 3 3 3 3 2 2 2 1 1 2 1 1 1
12 11 12 11 9 9 9 9 8 6 5 4 3 2 2 2 2 1 1 1 2 2 2 2 2 2 2 2 3 3 2 3 3 3 2 2 2 2 1 1 1 1 1
11 11 10 11 10 10 9 9 8 6 6 5 4 2 2 1 1 1 1 2 2 2 2 2 2 2 3 3 3 3 3 2 3 4 3 2 2 2 1 1 1 2 2
11 10 10 9 10 10 9 9 9 7 6 5 5 4 3 2 1 1 2 2 2 2 2 2 2 2 3 3 3 2 3 3 3 4 4 3 3 2 2 1 1 2 2
10 10 9 8 7 8 9 10 9 8 6 5 4 4 3 3 2 2 2 2 3 3 3 3 3 2 3 3 3 3 3 3 3 3 3 3 3 3 2 2 2 2 1
9 10 9 8 8 7 8 9 9 8 7 6 4 3 4 3 3 2 2 2 2 2 2 2 2 2 3 3 3 3 3 3 3 4 3 3 3 3 3 3 3 2 1
9 9 9 8 8 6 5 6 7 8 8 6 5 4 3 4 3 3 2 2 2 1 1 1 1 2 2 3 3 4 4 4 4 4 4 4 3 4 3 3 3 2 1
9 9 8 7 7 7 5 5 5 6 7 7 7 5 4 4 4 4 3 2 2 1 1 1 1 1 2 3 3 4 4 4 4 4 4 4 4 4 4 4 3 3 2
9 8 8 7 6 6 6 5 4 4 6 6 6 5 4 3 3 3 2 2 1 1 1 1 1 2 3 3 4 4 4 4 4 4 4 4 4 4 3 3 3 3 3
9 8 8 7 6 6 5 5 5 5 5 5 5 5 4 3 3 3 3 2 0 1 1 1 2 2 2 4 5 5 4 4 4 4 4 4 6 8 5 4 3 3 3
8 7 6 7 7 6 5 4 5 5 5 5 5 5 4 3 3 3 3 2 1 1 1 1 2 3 4 6 8 7 5 4 4 3 3 2 4 6 6 6 5 4 3
8 6 6 7 7 6 6 5 5 5 6 5 5 5 4 4 3 2 2 2 1 1 1 1 1 2 4 6 7 8 6 4 3 2 3 4 4 4 4 5 5 4 4
7 7 7 6 7 7 6 6 5 6 6 5 5 4 4 4 3 2 2 2 1 1 1 0 1 2 3 4 5 8 5 3 2 2 3 3 4 5 4 4 4 4 4
5 6 6 6 6 6 6 5 5 6 6 5 5 5 4 4 4 3 2 2 1 1 1 1 1 1 3 3 4 5 4 3 3 2 3 3 3 6 6 4 4 4 4
6 6 6 6 5 5 5 5 4 5 5 5 5 4 4 3 4 3 2 2 2 2 2 1 1 2 3 3 4 4 3 3 2 2 3 5 5 5 6 3 3 4 4
6 7 6 6 5 5 5 5 3 4 4 4 4 4 4 3 3 3 2 2 2 2 2 1 2 2 3 4 3 3 2 3 3 3 2 2 4 4 5 4 3 4 5
5 6 6 5 4 5 5 5 4 3 3 4 4 4 4 3 4 4 3 3 3 3 3 3 2 2 3 4 2 0 1 2 3 3 2 2 2 3 5 4 4 5 5
4 5 6 5 4 4 4 4 3 3 3 4 4 3 3 2 3 4 4 3 3 2 2 2 2 1 2 3 2 1 3 3 2 3 4 4 5 4 3 4 5 3 2
4 4 5 5 4 4 3 3 4 4 4 4 4 4 3 3 3 1 1 1 0 1 1 1 1 1 2 2 1 1 2 2 2 3 4 5 6 4 4 3 2 2 2
3 4 4 4 4 4 4 4 4 4 4 5 4 4 4 3 2 2 1 1 1 1 1 1 1 1 1 1 1 2 2 3 3 3 3 2 1 1 2 2 2 2 1
3 4 4 4 4 4 4 4 4 5 4 4 4 4 3 3 3 3 3 2 2 4 4 2 1 0 2 2 1 2 4 5 4 2 2 2 2 2 2 2 2 2 2
Wind_Direction
138 130 127 123 118 112 112 111 109 107 108 107 108 107 104 105 98 93 83 72 60 55 51 42 38 354 74 34 349 359 338 311 272 324 330 277 209 188 182 181 157 187 165
139 135 135 130 126 123 121 117 116 114 112 116 120 128 115 107 99 77 75 61 52 42 53 47 15 1 25 16 320 325 323 312 314 316 320 325 319 352 257 127 160 221 129
142 142 140 137 135 131 128 125 123 122 121 113 120 106 95 82 82 88 81 52 47 48 32 47 24 -0 8 355 297 333 313 309 314 310 301 318 334 2 9 7 183 31 85
146 146 146 146 146 142 137 128 129 124 119 116 119 123 118 111 93 94 92 74 47 50 46 47 28 6 16 11 346 16 338 323 322 321 314 292 294 268 321 346 357 17 31
149 149 149 148 148 143 140 137 133 130 127 133 123 116 104 93 90 102 109 104 70 49 44 36 26 20 21 11 359 359 350 341 334 324 329 333 316 263 231 284 304 328 354
148 146 144 144 148 146 145 142 139 140 141 139 132 122 111 79 79 78 97 117 91 53 39 50 28 23 11 7 354 345 354 354 345 326 323 318 316 288 255 249 254 268 294
145 145 148 150 150 150 148 145 145 146 144 141 138 135 139 120 91 80 77 73 70 63 34 40 33 19 360 1 358 353 347 359 340 321 319 314 308 304 286 266 274 273 264
148 150 150 152 155 153 150 146 145 145 146 148 145 138 135 133 98 59 49 65 60 61 50 47 35 17 5 359 354 337 349 356 330 332 342 321 319 312 300 268 271 279 272
154 152 152 153 154 154 155 153 148 147 153 157 152 143 139 123 98 69 70 63 64 73 60 51 45 27 10 358 346 343 354 347 348 345 353 335 326 323 316 291 263 263 279
153 145 143 140 138 148 151 146 147 151 156 156 162 151 140 128 108 81 71 63 54 40 42 36 26 16 2 352 349 340 356 357 350 336 353 347 335 334 332 331 318 310 256
144 142 139 136 133 138 149 148 150 153 152 151 147 136 147 145 139 123 97 85 67 57 51 47 24 12 3 356 354 342 356 349 340 339 354 349 348 347 341 344 335 347 356
133 132 133 136 136 137 143 148 153 158 159 157 153 158 155 153 151 130 117 118 119 97 78 59 31 16 25 8 358 344 346 348 346 347 349 349 354 359 350 343 341 347 336
128 131 133 136 143 146 142 154 161 161 161 161 163 162 162 153 141 134 134 126 119 109 87 73 31 23 31 15 0 345 337 342 345 353 355 359 6 0 353 343 352 351 353
129 129 131 135 140 145 149 153 154 154 156 156 159 156 163 155 149 142 138 134 138 126 56 49 20 26 46 25 6 351 339 350 355 2 9 11 17 7 346 352 2 349 343
134 133 138 141 143 143 142 150 153 151 148 148 153 157 155 150 148 146 139 128 119 87 55 37 31 32 45 25 16 348 349 350 346 2 11 23 39 34 19 8 356 348 339
135 135 142 143 147 145 142 150 155 152 148 155 158 149 150 152 150 143 131 136 126 79 63 37 40 29 32 30 23 4 341 341 348 0 5 15 37 26 20 20 7 354 338
136 148 151 151 146 148 149 157 162 149 150 153 151 153 159 155 152 162 146 151 131 102 83 52 56 70 50 29 22 3 335 337 6 11 352 348 22 30 17 4 359 347 333
150 154 154 151 148 152 151 159 162 153 151 154 154 154 158 158 157 157 157 151 143 138 146 174 61 71 63 38 18 355 334 349 15 17 17 28 25 20 8 353 360 348 348
138 140 142 137 137 146 148 156 167 154 153 157 158 160 163 160 166 170 166 160 172 174 186 174 156 100 88 52 27 2 327 351 3 22 41 43 43 24 17 15 357 348 344
111 119 124 125 125 134 142 148 148 149 157 158 156 153 160 169 168 163 161 163 186 203 207 174 166 140 118 87 46 7 339 344 357 41 55 58 57 39 21 4 341 334 333
111 113 115 119 123 135 140 144 144 147 147 145 144 148 161 176 163 152 157 169 200 204 211 197 182 155 138 123 82 39 0 348 347 356 14 44 41 17 353 340 314 306 314
113 117 111 113 122 134 139 142 141 136 139 140 143 153 170 194 157 153 172 190 206 211 210 210 217 174 149 134 141 94 322 329 340 333 348 1 341 328 322 322 305 311 320
117 123 120 113 115 121 130 142 135 132 136 138 142 150 159 161 152 177 189 203 205 221 225 224 231 204 131 119 99 266 294 300 307 323 332 310 287 287 282 272 278 302 314
118 124 125 125 123 123 124 129 131 140 146 145 149 160 167 173 163 188 197 200 197 265 280 303 345 51 70 71 13 298 301 308 307 318 305 281 273 276 275 281 286 281 292
120 127 133 134 135 131 132 141 140 147 157 163 170 180 176 166 153 146 109 133 121 154 199 358 3 19 13 339 287 271 292 308 314 309 290 279 293 304 306 293 291 290 296
141 144 145 145 148 151 153 155 155 156 165 179 189 195 181 177 176 171 163 119 151 158 163 174 190 124 147 177 266 301 297 293 295 288 276 295 304 306 311 312 316 328 339
Height
1487 1489 1490 1492 1493 1494 1495 1495 1496 1496 1497 1498 1499 1500 1501 1502 1502 1503 1503 1503 1503 1503 1503 1503 1503 1503 1503 1503 1502 1501 1501 1500 1500 1500 1500 1500 1500 1500 1501 1501 1501 1501 1500
1484 1487 1490 1492 1493 1494 1495 1495 1496 1497 1498 1499 1500 1501 1501 1502 1503 1503 1503 1504 1504 1504 1504 1503 1503 1503 1503 1503 1502 1502 1501 1501 1500 1500 1500 1500 1501 1499 1500 1500 1500 1499 1500
1482 1486 1489 1491 1493 1494 1495 1496 1496 1497 1498 1499 1500 1501 1502 1503 1503 1504 1504 1504 1504 1504 1504 1504 1504 1503 1503 1503 1502 1502 1502 1501 1501 1501 1501 1500 1499 1499 1500 1499 1499 1499 1499
1480 1484 1487 1490 1492 1494 1494 1495 1496 1497 1498 1499 1500 1501 1502 1503 1504 1504 1504 1505 1505 1504 1504 1504 1504 1503 1503 1503 1502 1502 1502 1501 1501 1501 1501 1501 1500 1499 1499 1499 1499 1498 1498
1478 1482 1486 1489 1491 1493 1494 1495 1496 1497 1498 1499 1501 1502 1503 1504 1504 1505 1505 1505 1505 1505 1504 1504 1504 1503 1503 1503 1502 1502 1501 1501 1500 1500 1500 1499 1499 1499 1499 1498 1498 1498 1498
1476 1480 1485 1488 1490 1492 1493 1494 1495 1497 1498 1499 1500 1502 1503 1504 1504 1505 1505 1505 1505 1505 1504 1504 1503 1503 1502 1502 1502 1501 1500 1500 1500 1499 1499 1499 1498 1498 1497 1497 1497 1497 1497
1475 1479 1483 1486 1489 1491 1492 1493 1495 1496 1498 1499 1500 1501 1502 1504 1504 1505 1505 1505 1505 1504 1504 1504 1503 1503 1502 1502 1501 1500 1499 1499 1498 1498 1498 1497 1497 1497 1497 1496 1496 1495 1496
1474 1478 1482 1485 1487 1489 1491 1492 1493 1495 1497 1498 1500 1501 1502 1503 1504 1505 1505 1505 1505 1504 1504 1503 1503 1503 1502 1501 1501 1500 1499 1498 1498 1497 1497 1496 1496 1496 1495 1495 1495 1494 1494
1474 1477 1481 1484 1486 1488 1490 1491 1492 1494 1496 1498 1499 1500 1501 1502 1503 1504 1505 1505 1504 1504 1503 1503 1503 1502 1501 1501 1500 1499 1498 1498 1497 1496 1496 1495 1494 1494 1494 1494 1494 1494 1492
1472 1476 1480 1483 1485 1487 1489 1490 1491 1493 1495 1497 1498 1500 1500 1501 1502 1503 1503 1503 1504 1503 1503 1503 1502 1501 1501 1500 1499 1498 1498 1497 1496 1495 1494 1494 1493 1492 1492 1492 1492 1492 1491
1471 1475 1479 1482 1484 1487 1488 1489 1491 1492 1494 1495 1497 1498 1499 1500 1501 1501 1502 1502 1502 1502 1502 1502 1501 1501 1500 1499 1499 1498 1497 1496 1495 1494 1493 1492 1492 1491 1491 1490 1490 1490 1490
1470 1474 1478 1481 1484 1486 1488 1489 1490 1491 1493 1494 1496 1497 1498 1499 1500 1501 1501 1501 1501 1501 1501 1501 1501 1500 1500 1499 1498 1497 1496 1495 1494 1493 1492 1491 1491 1490 1489 1489 1489 1488 1488
1470 1474 1477 1481 1483 1485 1486 1488 1490 1491 1492 1493 1495 1496 1497 1498 1499 1500 1500 1501 1501 1500 1501 1501 1500 1499 1499 1498 1497 1496 1496 1495 1494 1493 1492 1491 1490 1489 1488 1488 1487 1487 1487
1470 1473 1477 1480 1482 1484 1485 1487 1489 1490 1492 1493 1494 1495 1496 1497 1498 1498 1499 1500 1500 1500 1500 1500 1499 1499 1498 1497 1497 1496 1495 1494 1493 1492 1491 1490 1488 1487 1487 1486 1486 1485 1485
1470 1473 1476 1479 1481 1484 1485 1486 1488 1489 1491 1492 1493 1493 1495 1496 1497 1498 1498 1498 1499 1499 1499 1498 1498 1498 1497 1496 1496 1495 1494 1493 1492 1491 1490 1489 1488 1487 1486 1485 1484 1484 1484
1469 1473 1476 1478 1480 1482 1484 1485 1487 1488 1489 1490 1491 1492 1493 1495 1496 1497 1497 1497 1497 1497 1497 1497 1497 1497 1496 1496 1495 1494 1493 1492 1490 1489 1488 1487 1486 1485 1484 1483 1483 1482 1482
1469 1472 1475 1477 1479 1481 1482 1484 1485 1487 1488 1489 1490 1491 1492 1494 1495 1496 1496 1496 1496 1496 1496 1496 1496 1495 1495 1494 1494 1492 1491 1490 1489 1488 1487 1486 1485 1483 1482 1481 1481 1480 1480
1468 1471 1474 1476 1478 1480 1481 1483 1484 1486 1487 1488 1490 1490 1492 1493 1494 1495 1495 1495 1495 1495 1495 1495 1495 1494 1494 1493 1492 1491 1490 1489 1488 1487 1486 1485 1483 1482 1481 1480 1479 1478 1478
1468 1470 1473 1475 1477 1479 1480 1482 1483 1485 1486 1487 1488 1490 1491 1492 1493 1493 1493 1494 1494 1494 1494 1494 1494 1493 1492 1492 1491 1490 1489 1488 1487 1486 1485 1483 1482 1481 1480 1478 1477 1476 1476
1468 1470 1472 1474 1476 1478 1479 1481 1483 1484 1485 1486 1487 1488 1490 1490 1491 1492 1492 1493 1493 1493 1493 1493 1493 1492 1491 1490 1489 1489 1488 1487 1486 1485 1484 1482 1481 1480 1478 1477 1476 1475 1474
1468 1470 1471 1473 1475 1477 1479 1480 1481 1482 1484 1485 1486 1487 1488 1489 1490 1491 1491 1492 1492 1492 1492 1492 1491 1491 1490 1489 1488 1487 1486 1486 1485 1484 1483 1481 1480 1479 1477 1476 1475 1474 1473
1468 1469 1471 1473 1474 1476 1477 1479 1480 1481 1483 1484 1485 1486 1487 1489 1490 1490 1490 1491 1491 1491 1491 1491 1491 1490 1489 1488 1487 1486 1485 1484 1483 1483 1481 1480 1478 1477 1476 1475 1474 1473 1472
1468 1470 1471 1473 1474 1475 1476 1478 1479 1480 1481 1483 1484 1485 1486 1487 1488 1489 1489 1489 1490 1490 1490 1490 1490 1489 1488 1487 1486 1485 1484 1483 1482 1481 1480 1478 1477 1476 1475 1474 1473 1472 1471
1468 1469 1471 1472 1473 1474 1475 1477 1478 1479 1480 1482 1483 1484 1485 1486 1487 1487 1488 1488 1488 1489 1489 1489 1488 1488 1487 1485 1484 1483 1482 1481 1480 1479 1478 1477 1476 1475 1474 1473 1472 1471 1470
1467 1469 1470 1471 1472 1473 1474 1476 1477 1478 1479 1480 1482 1483 1484 1485 1485 1486 1486 1487 1487 1487 1487 1487 1487 1486 1485 1485 1484 1482 1481 1480 1478 1477 1476 1475 1475 1474 1473 1472 1471 1470 1469
1466 1468 1469 1470 1471 1471 1472 1474 1475 1476 1478 1479 1480 1482 1483 1483 1484 1484 1485 1485 1485 1485 1485 1485 1485 1485 1484 1483 1483 1482 1480 1479 1478 1476 1475 1474 1473 1472 1472 1471 1470 1469 1468